Simultaneous Nadir Overpasses (SNOs) Predictions

Prediction of SNOs between NOAA-19 and TERRA Satellite Orbit:

Table of predicted SNOs for the next 14.0 days since TLE Epoch: 6/18/2015
Index Date (NOAA-19) Time (NOAA-19) Lat,Lon (NOAA-19) SZA (NOAA-19 ) Date (TERRA) Time (TERRA) Lat,Lon (TERRA) SZA (TERRA ) Distance(km) Time Diff (sec)
1 06/19/2015 00:33:43 72.07, 175.44 48.61 06/19/2015 00:34:32 72.08, 175.35 48.62 3.28 49
2 06/19/2015 01:24:36 -71.99, -17.11 131.48 06/19/2015 01:24:01 -72.01, -17.14 131.46 3.11 35
3 06/21/2015 06:07:59 -72.09, -88.13 131.40 06/21/2015 06:08:22 -72.06, -88.14 131.44 3.53 23
4 06/21/2015 06:59:03 71.90, 79.47 48.42 06/21/2015 06:57:50 71.92, 79.26 48.43 7.85 73
5 06/23/2015 10:51:28 -72.50,-159.77 131.00 06/23/2015 10:52:39 -72.40,-158.62 131.07 39.99 71
6 06/23/2015 11:42:27 72.07, 8.34 48.59 06/23/2015 11:42:11 72.05, 8.39 48.57 2.43 16
7 06/25/2015 16:25:49 72.14, -62.61 48.70 06/25/2015 16:26:34 72.16, -62.53 48.72 3.04 45
8 06/25/2015 17:16:42 -72.04, 104.88 131.41 06/25/2015 17:16:04 -72.05, 104.91 131.40 1.69 38
9 06/27/2015 22:00:04 -72.11, 33.94 131.26 06/27/2015 22:00:29 -72.13, 33.94 131.24 2.50 25
10 06/27/2015 22:51:09 71.99,-158.62 48.63 06/27/2015 22:49:57 71.99,-158.66 48.62 1.72 72
11 06/30/2015 02:43:39 -72.83, -38.37 130.45 06/30/2015 02:44:46 -72.72, -36.09 130.52 76.16 67
12 06/30/2015 03:34:30 72.09, 130.40 48.83 06/30/2015 03:34:22 72.10, 130.41 48.84 1.07 8
